User: anonymous   Login
Location: Unspecified
(0.0000°N, 0.0000°E)
Time: 17:15:31
(UTC+00:00)
Language:

PAKSAT 1R - Orbit

View from above orbital plane
View from above orbital plane
View from above satellite
View from above satellite

Ground track
Ground track

The orbit data is extracted from the following two-line orbital elements,

1 37779U 11042A   15141.77358644  .00000137  00000-0  00000+0 0  9997
2 37779 000.0248 255.3502 0003027 159.3950 140.7927 01.00270564 13767
Epoch (UTC): 21 May 2015 18:33:57
Eccentricity: 0.0003027
inclination: 0.0248°
perigee height: 35774 km
apogee height: 35799 km
right ascension of ascending node: 255.3502°
argument of perigee: 159.3950°
revolutions per day: 1.00270564
mean anomaly at epoch: 140.7927°
orbit number at epoch: 1376

The dashed part of the orbit path shows where the satellite is in the earth's shadow,  

DLR